| time (UTC) | temp F | wind direction | speed MPH | gust MPH | rain 1hr in | rain 24hr in | rain mn in | humidity % | barometer mb |
| 20260506101540 | 48 | 65 | 0.0 | 1.0 | 0.00 | 0.02 | 0.00 | 65 | 1013.6 |
| 20260506100023 | 49 | 94 | 0.0 | 2.0 | 0.00 | 0.02 | 0.00 | 63 | 1013.4 |
| 20260506094530 | 49 | 140 | 0.0 | 2.0 | 0.00 | 0.02 | 0.00 | 62 | 1013.3 |
| 20260506093008 | 49 | 220 | 0.0 | 2.0 | 0.00 | 0.02 | 0.00 | 63 | 1013.2 |
| 20260506091507 | 49 | 222 | 0.0 | 3.0 | 0.00 | 0.02 | 0.00 | 62 | 1013.4 |
| 20260506090006 | 49 | 268 | 0.0 | 2.0 | 0.00 | 0.02 | 0.00 | 62 | 1013.4 |
| 20260506084505 | 48 | 268 | 0.0 | 4.0 | 0.00 | 0.02 | 0.00 | 63 | 1013.2 |
| 20260506083004 | 47 | 234 | 0.0 | 2.0 | 0.00 | 0.02 | 0.00 | 65 | 1013.3 |
| 20260506081504 | 47 | 244 | 0.0 | 3.0 | 0.00 | 0.02 | 0.00 | 67 | 1013.1 |
| 20260506080110 | 47 | 273 | 0.0 | 2.0 | 0.00 | 0.02 | 0.00 | 68 | 1013.3 |
| 20260506073039 | 47 | 213 | 0.0 | 1.0 | 0.00 | 0.02 | 0.00 | 67 | 1013.2 |
| 20260506071546 | 47 | 225 | 0.0 | 0.0 | 0.00 | 0.02 | 0.00 | 65 | 1013.0 |
| 20260506061513 | 50 | 347 | 0.0 | 2.0 | 0.00 | 0.06 | 0.00 | 59 | 1012.5 |
| 20260506044552 | 51 | 251 | 0.0 | 1.0 | 0.00 | 0.06 | 0.00 | 57 | 1011.7 |
| 20260506043020 | 53 | 330 | 0.0 | 2.0 | 0.00 | 0.06 | 0.00 | 54 | 1011.4 |
| 20260506041518 | 53 | 270 | 0.0 | 1.0 | 0.00 | 0.06 | 0.06 | 54 | 1011.2 |
| 20260506040006 | 54 | 288 | 0.0 | 3.0 | 0.00 | 0.06 | 0.06 | 53 | 1011.0 |
| 20260506034506 | 55 | 258 | 0.0 | 1.0 | 0.00 | 0.06 | 0.06 | 53 | 1010.7 |
| 20260506033006 | 56 | 257 | 0.0 | 2.0 | 0.00 | 0.06 | 0.06 | 51 | 1010.5 |
| 20260506031512 | 58 | 335 | 0.0 | 2.0 | 0.00 | 0.06 | 0.06 | 48 | 1010.1 |
| 20260506030007 | 59 | 5 | 0.0 | 3.0 | 0.00 | 0.06 | 0.06 | 46 | 1009.8 |
| 20260506024505 | 59 | 307 | 0.0 | 8.0 | 0.00 | 0.06 | 0.06 | 44 | 1009.7 |
| 20260506023004 | 61 | 348 | 1.0 | 7.0 | 0.00 | 0.06 | 0.06 | 40 | 1009.4 |
| 20260506021503 | 63 | 16 | 3.0 | 10.0 | 0.00 | 0.06 | 0.06 | 40 | 1009.2 |
| 20260506020051 | 65 | 317 | 2.0 | 12.0 | 0.00 | 0.06 | 0.06 | 35 | 1009.1 |
| 20260506014558 | 66 | 349 | 6.0 | 15.0 | 0.00 | 0.06 | 0.06 | 34 | 1008.8 |
| 20260506013051 | 67 | 11 | 6.0 | 16.0 | 0.00 | 0.06 | 0.06 | 34 | 1008.5 |
| 20260506011556 | 68 | 308 | 4.0 | 15.0 | 0.00 | 0.06 | 0.06 | 33 | 1008.2 |
| 20260506010054 | 70 | 309 | 4.0 | 10.0 | 0.00 | 0.06 | 0.06 | 31 | 1008.3 |
| 20260506004621 | 68 | 198 | 1.0 | 7.0 | 0.00 | 0.06 | 0.06 | 28 | 1008.1 |
| 20260506003045 | 68 | 286 | 0.0 | 5.0 | 0.00 | 0.06 | 0.06 | 29 | 1008.1 |
| 20260506001544 | 68 | 29 | 2.0 | 5.0 | 0.00 | 0.06 | 0.06 | 32 | 1008.0 |
| 20260506000033 | 68 | 85 | 2.0 | 6.0 | 0.00 | 0.06 | 0.06 | 33 | 1008.1 |
| 20260505234601 | 68 | 5 | 0.0 | 4.0 | 0.00 | 0.06 | 0.06 | 33 | 1008.1 |
| 20260505233028 | 67 | 248 | 0.0 | 7.0 | 0.00 | 0.06 | 0.06 | 35 | 1008.2 |
| 20260505231526 | 67 | 269 | 1.0 | 10.0 | 0.00 | 0.06 | 0.06 | 35 | 1008.3 |
| 20260505230024 | 66 | 316 | 1.0 | 5.0 | 0.00 | 0.06 | 0.06 | 38 | 1008.5 |
| 20260505224528 | 66 | 311 | 4.0 | 10.0 | 0.00 | 0.06 | 0.06 | 37 | 1008.8 |
| 20260505223016 | 65 | 5 | 3.0 | 9.0 | 0.00 | 0.06 | 0.06 | 39 | 1009.1 |
| 20260505221513 | 65 | 317 | 4.0 | 8.0 | 0.00 | 0.06 | 0.06 | 43 | 1009.2 |
| 20260505220143 | 65 | 97 | 3.0 | 7.0 | 0.00 | 0.06 | 0.06 | 40 | 1009.4 |
| 20260505214617 | 64 | 306 | 1.0 | 4.0 | 0.00 | 0.06 | 0.06 | 46 | 1009.7 |
| 20260505213057 | 64 | 5 | 1.0 | 5.0 | 0.00 | 0.06 | 0.06 | 41 | 1009.9 |
| 20260505211612 | 64 | 243 | 3.0 | 7.0 | 0.00 | 0.06 | 0.06 | 46 | 1010.2 |
| 20260505210053 | 63 | 59 | 2.0 | 7.0 | 0.00 | 0.06 | 0.06 | 44 | 1010.4 |
| 20260505204550 | 62 | 360 | 2.0 | 5.0 | 0.00 | 0.06 | 0.06 | 47 | 1010.6 |
| 20260505203049 | 61 | 44 | 1.0 | 4.0 | 0.00 | 0.06 | 0.06 | 48 | 1010.7 |
| 20260505201543 | 60 | 281 | 1.0 | 6.0 | 0.00 | 0.06 | 0.06 | 50 | 1010.8 |
| 20260505200034 | 58 | 101 | 0.0 | 4.0 | 0.00 | 0.06 | 0.06 | 56 | 1011.2 |
| 20260505194527 | 59 | 322 | 2.0 | 5.0 | 0.00 | 0.06 | 0.06 | 55 | 1011.4 |
| 20260505193026 | 58 | 227 | 1.0 | 5.0 | 0.00 | 0.06 | 0.06 | 58 | 1011.6 |
| 20260505191524 | 56 | 130 | 0.0 | 3.0 | 0.00 | 0.06 | 0.06 | 64 | 1011.8 |
| 20260505190019 | 54 | 271 | 0.0 | 2.0 | 0.00 | 0.06 | 0.06 | 64 | 1011.8 |
| 20260505184525 | 54 | 228 | 0.0 | 3.0 | 0.00 | 0.06 | 0.06 | 62 | 1011.8 |
| 20260505183038 | 54 | 88 | 0.0 | 4.0 | 0.00 | 0.06 | 0.06 | 62 | 1011.9 |
| 20260505181515 | 54 | 237 | 0.0 | 3.0 | 0.00 | 0.06 | 0.06 | 63 | 1012.0 |
| 20260505180001 | 53 | 306 | 1.0 | 4.0 | 0.00 | 0.06 | 0.06 | 65 | 1011.8 |
| 20260505174600 | 53 | 223 | 1.0 | 7.0 | 0.00 | 0.06 | 0.06 | 69 | 1011.6 |
| 20260505173058 | 51 | 293 | 2.0 | 6.0 | 0.00 | 0.06 | 0.06 | 73 | 1011.5 |
| 20260505171556 | 51 | 267 | 2.0 | 5.0 | 0.00 | 0.06 | 0.06 | 76 | 1011.4 |
| 20260505170056 | 50 | 319 | 2.0 | 7.0 | 0.00 | 0.06 | 0.06 | 75 | 1011.2 |
| 20260505164616 | 49 | 309 | 3.0 | 8.0 | 0.00 | 0.06 | 0.06 | 75 | 1011.2 |
| 20260505163054 | 49 | 309 | 2.0 | 6.0 | 0.00 | 0.06 | 0.06 | 76 | 1011.1 |
| 20260505161558 | 49 | 303 | 2.0 | 4.0 | 0.00 | 0.06 | 0.06 | 78 | 1011.1 |
| 20260505153045 | 47 | 322 | 1.0 | 3.0 | 0.00 | 0.06 | 0.06 | 82 | 1010.6 |
| 20260505151544 | 46 | 314 | 0.0 | 4.0 | 0.00 | 0.06 | 0.06 | 83 | 1010.4 |
| 20260505124516 | 45 | 360 | 1.0 | 4.0 | 0.01 | 0.05 | 0.05 | 83 | 1009.1 |
| 20260505123014 | 45 | 24 | 1.0 | 4.0 | 0.00 | 0.04 | 0.04 | 83 | 1008.9 |
| 20260505121514 | 45 | 360 | 0.0 | 2.0 | 0.00 | 0.04 | 0.04 | 84 | 1008.9 |
| 20260505120013 | 44 | 355 | 0.0 | 1.0 | 0.00 | 0.04 | 0.04 | 83 | 1008.8 |
| 20260505114502 | 44 | 355 | 0.0 | 2.0 | 0.00 | 0.04 | 0.04 | 83 | 1008.9 |
| 20260505113002 | 44 | 312 | 0.0 | 2.0 | 0.00 | 0.04 | 0.04 | 83 | 1009.0 |
| 20260505111503 | 44 | 293 | 0.0 | 1.0 | 0.00 | 0.04 | 0.04 | 83 | 1009.0 |